Orbital Elements at Epoch 2459200.5 (2020-Dec-17.0) TDB
Reference: JPL 17 (heliocentric ecliptic J2000)
Element | Value | Uncertainty (1-sigma) | Units |
e | .1844635800370319 | 5.9204e-08 | |
a | 2.634193448902699 | 1.9391e-08 | au |
q | 2.148280694808011 | 1.5117e-07 | au |
i | 13.60127760621152 | 5.9988e-06 | deg |
node | 208.6545502696628 | 1.8998e-05 | deg |
peri | 180.999447483474 | 2.3492e-05 | deg |
M | 210.2661289999944 | 1.8866e-05 | deg |
tp | 2459850.012444511501 (2022-Sep-27.51244451) | 8.7251e-05 | TDB |
period | 1561.600447931595 4.28 | 1.7243e-05 4.721e-08 | d yr |
n | .230532720758908 | 2.5455e-09 | deg/d |
Q | 3.120106202997387 | 2.2968e-08 | au |
|
| | Orbit Determination Parameters
Additional Information
|